STARLINK-1647

Last updated on Sat Apr 24 2021 00:02:02 GMT+0000 (Coordinated Universal Time)

1 47978U 21024B 21113.25001157 -.01178498 00000-0 -18966-1 0 9994 2 47978 53.0468 56.1817 0001148 74.8725 205.8907 15.55333853 1810

Satellite not in orbit

STARLINK-1647